Zurück zum Katalog

YAOGAN-43 O1E

AktivMilitärVLEO
NORAD 60462·PAYLOAD·🇨🇳 China

Gestartet Aug 16, 2024 von Xichang Satellite Launch Center

Loading…

Nächste Überflüge (nächste 24 Stunden)

TLE

AktuellSource: Space-Track

Epoche: Sep 14, 2026, 15:02 UTC

1 60462U 24148E   26257.62651470  .00008077  00000-0  33661-3 0  9994
2 60462  34.9940 317.6570 0003250 312.2774  47.7665 15.22982492115808

Verfolge YAOGAN-43 O1E in Echtzeit mit AllMySat

Download on the App Store